Hourly Weather Dominikowice

Today, 30 September, Wednesday

Time Temperature Precipitation Wind Pressure Humidity
00:00 +13°C° 0 mm 2 mps 750 mmHg 92%
01:00 +13°C° 0 mm 2 mps 750 mmHg 91%
02:00 +12°C° 0 mm 2 mps 750 mmHg 90%
03:00 +11°C° 0 mm 3 mps 749 mmHg 90%
04:00 +10°C° 0 mm 3 mps 749 mmHg 90%
05:00 +11°C° 0 mm 3 mps 749 mmHg 87%
06:00 +11°C° 0 mm 3 mps 749 mmHg 85%
07:00 +11°C° 0 mm 3 mps 750 mmHg 82%
08:00 +13°C° 0 mm 4 mps 749 mmHg 77%
09:00 +14°C° 0 mm 4 mps 749 mmHg 72%
10:00 +15°C° 0 mm 4 mps 749 mmHg 66%
11:00 +16°C° 0 mm 5 mps 749 mmHg 65%
12:00 +17°C° 0 mm 5 mps 749 mmHg 63%
13:00 +17°C° 0 mm 5 mps 748 mmHg 62%
14:00 +17°C° 0 mm 5 mps 748 mmHg 62%
15:00 +17°C° 0 mm 5 mps 748 mmHg 63%
16:00 +17°C° 0 mm 5 mps 748 mmHg 63%
17:00 +16°C° 0 mm 5 mps 748 mmHg 66%
18:00 +15°C° 0 mm 5 mps 748 mmHg 68%
19:00 +15°C° 0 mm 5 mps 748 mmHg 71%
20:00 +15°C° 0 mm 5 mps 747 mmHg 74%
21:00 +14°C° 0 mm 5 mps 747 mmHg 78%
22:00 +14°C° 0 mm 4 mps 747 mmHg 82%
23:00 +14°C° 0.3 mm 4 mps 747 mmHg 85%

Tomorrow, 1 October, Thursday

Time Temperature Precipitation Wind Pressure Humidity
00:00 +14°C° 0.3 mm 4 mps 746 mmHg 87%
01:00 +13°C° 0.3 mm 3 mps 746 mmHg 90%
02:00 +13°C° 0.2 mm 3 mps 746 mmHg 90%
03:00 +13°C° 0.2 mm 3 mps 745 mmHg 89%
04:00 +13°C° 0.2 mm 3 mps 745 mmHg 89%
05:00 +13°C° 0 mm 3 mps 745 mmHg 88%
06:00 +13°C° 0 mm 3 mps 745 mmHg 86%
07:00 +12°C° 0 mm 3 mps 744 mmHg 85%
08:00 +13°C° 0 mm 3 mps 744 mmHg 82%
09:00 +13°C° 0 mm 3 mps 744 mmHg 78%
10:00 +13°C° 0 mm 3 mps 744 mmHg 75%
11:00 +13°C° 0 mm 3 mps 744 mmHg 74%
12:00 +14°C° 0 mm 3 mps 743 mmHg 73%
13:00 +14°C° 0 mm 4 mps 743 mmHg 73%
14:00 +13°C° 0.1 mm 3 mps 743 mmHg 77%
15:00 +13°C° 0.1 mm 3 mps 743 mmHg 82%
16:00 +12°C° 0.1 mm 3 mps 743 mmHg 86%
17:00 +12°C° 0 mm 3 mps 743 mmHg 87%
18:00 +12°C° 0 mm 3 mps 744 mmHg 88%
19:00 +13°C° 0 mm 2 mps 744 mmHg 89%
20:00 +13°C° 0 mm 2 mps 744 mmHg 91%
21:00 +12°C° 0 mm 2 mps 744 mmHg 93%
22:00 +12°C° 0 mm 2 mps 744 mmHg 94%
23:00 +12°C° 0 mm 2 mps 744 mmHg 95%

Day after tomorrow, 2 October, Friday

Time Temperature Precipitation Wind Pressure Humidity
00:00 +10°C° 0 mm 2 mps 744 mmHg 95%
01:00 +10°C° 0 mm 2 mps 744 mmHg 96%
02:00 +10°C° 0 mm 2 mps 744 mmHg 96%
03:00 +10°C° 0 mm 3 mps 744 mmHg 96%
04:00 +9°C° 0 mm 3 mps 744 mmHg 96%
05:00 +10°C° 0 mm 3 mps 744 mmHg 95%
06:00 +10°C° 0 mm 3 mps 745 mmHg 94%
07:00 +10°C° 0 mm 3 mps 745 mmHg 93%
08:00 +11°C° 0 mm 3 mps 745 mmHg 87%
09:00 +13°C° 0 mm 4 mps 745 mmHg 81%
10:00 +14°C° 0 mm 4 mps 745 mmHg 75%
11:00 +15°C° 0 mm 4 mps 745 mmHg 73%
12:00 +17°C° 0 mm 4 mps 745 mmHg 71%
13:00 +17°C° 0 mm 4 mps 745 mmHg 68%
14:00 +17°C° 0 mm 4 mps 745 mmHg 69%
15:00 +17°C° 0 mm 4 mps 745 mmHg 70%
16:00 +17°C° 0 mm 4 mps 745 mmHg 71%
17:00 +15°C° 0 mm 4 mps 745 mmHg 76%
18:00 +14°C° 0 mm 4 mps 745 mmHg 80%
19:00 +13°C° 0 mm 4 mps 746 mmHg 85%
20:00 +13°C° 0 mm 4 mps 746 mmHg 87%
21:00 +12°C° 0 mm 4 mps 746 mmHg 89%
22:00 +12°C° 0 mm 4 mps 745 mmHg 90%
23:00 +12°C° 0 mm 5 mps 745 mmHg 91%

3 October, Saturday

Time Temperature Precipitation Wind Pressure Humidity
00:00 +12°C° 0 mm 5 mps 745 mmHg 91%
01:00 +10°C° 0 mm 5 mps 745 mmHg 92%
02:00 +11°C° 0 mm 6 mps 744 mmHg 89%
03:00 +11°C° 0 mm 6 mps 744 mmHg 86%
04:00 +12°C° 0 mm 7 mps 744 mmHg 84%
05:00 +12°C° 0 mm 7 mps 743 mmHg 84%
06:00 +12°C° 0 mm 7 mps 743 mmHg 83%
07:00 +12°C° 0 mm 7 mps 743 mmHg 83%
08:00 +13°C° 0 mm 8 mps 743 mmHg 80%
09:00 +16°C° 0 mm 8 mps 742 mmHg 76%
10:00 +17°C° 0 mm 8 mps 742 mmHg 73%
11:00 +18°C° 0 mm 7 mps 742 mmHg 68%
12:00 +21°C° 0 mm 7 mps 742 mmHg 63%
13:00 +22°C° 0 mm 7 mps 741 mmHg 58%
14:00 +22°C° 0 mm 6 mps 741 mmHg 59%
15:00 +22°C° 0 mm 6 mps 741 mmHg 59%
16:00 +22°C° 0 mm 5 mps 741 mmHg 59%
17:00 +22°C° 0 mm 5 mps 741 mmHg 61%
18:00 +21°C° 0 mm 5 mps 741 mmHg 63%
19:00 +20°C° 0 mm 5 mps 741 mmHg 65%
20:00 +20°C° 0 mm 5 mps 740 mmHg 65%
21:00 +19°C° 0 mm 5 mps 740 mmHg 65%
22:00 +19°C° 0 mm 5 mps 740 mmHg 66%
23:00 +19°C° 0 mm 6 mps 740 mmHg 66%

4 October, Sunday

Time Temperature Precipitation Wind Pressure Humidity
00:00 +19°C° 0 mm 6 mps 739 mmHg 66%
01:00 +17°C° 0 mm 6 mps 739 mmHg 67%
02:00 +17°C° 0 mm 6 mps 739 mmHg 67%
03:00 +19°C° 0 mm 6 mps 738 mmHg 68%
04:00 +18°C° 0 mm 7 mps 738 mmHg 68%
05:00 +18°C° 0.1 mm 7 mps 738 mmHg 69%
06:00 +18°C° 0.1 mm 7 mps 738 mmHg 69%
07:00 +18°C° 0.1 mm 7 mps 738 mmHg 70%
08:00 +20°C° 0 mm 7 mps 738 mmHg 65%
09:00 +21°C° 0 mm 6 mps 738 mmHg 61%
10:00 +22°C° 0 mm 6 mps 739 mmHg 57%
11:00 +22°C° 0 mm 6 mps 739 mmHg 55%
12:00 +23°C° 0 mm 6 mps 740 mmHg 53%
13:00 +23°C° 0 mm 6 mps 741 mmHg 50%
14:00 +22°C° 0 mm 5 mps 741 mmHg 55%
15:00 +21°C° 0 mm 4 mps 742 mmHg 59%
16:00 +20°C° 0 mm 3 mps 742 mmHg 64%
17:00 +19°C° 0 mm 2 mps 743 mmHg 67%
18:00 +18°C° 0 mm 2 mps 743 mmHg 71%
19:00 +18°C° 0 mm 1 mps 744 mmHg 75%
20:00 +16°C° 0 mm 2 mps 744 mmHg 76%
21:00 +16°C° 0 mm 2 mps 744 mmHg 78%
22:00 +14°C° 0 mm 3 mps 744 mmHg 80%
23:00 +14°C° 0 mm 3 mps 744 mmHg 80%

5 October, Monday

Time Temperature Precipitation Wind Pressure Humidity
00:00 +14°C° 0 mm 3 mps 744 mmHg 81%
01:00 +13°C° 0 mm 3 mps 744 mmHg 81%
02:00 +13°C° 0 mm 3 mps 744 mmHg 80%
03:00 +13°C° 0 mm 3 mps 744 mmHg 79%
04:00 +13°C° 0 mm 3 mps 744 mmHg 78%
05:00 +13°C° 0 mm 3 mps 743 mmHg 77%
06:00 +13°C° 0 mm 4 mps 743 mmHg 76%
07:00 +13°C° 0 mm 4 mps 743 mmHg 74%
08:00 +14°C° 0 mm 4 mps 743 mmHg 71%
09:00 +17°C° 0 mm 3 mps 742 mmHg 67%
10:00 +18°C° 0 mm 3 mps 742 mmHg 63%
11:00 +19°C° 0 mm 3 mps 742 mmHg 61%
12:00 +19°C° 0 mm 4 mps 741 mmHg 60%
13:00 +20°C° 0 mm 4 mps 741 mmHg 58%
14:00 +21°C° 0 mm 4 mps 740 mmHg 57%
15:00 +21°C° 0 mm 3 mps 740 mmHg 56%
16:00 +22°C° 0 mm 3 mps 740 mmHg 55%
17:00 +21°C° 0.1 mm 4 mps 740 mmHg 56%
18:00 +20°C° 0.1 mm 4 mps 740 mmHg 58%
19:00 +19°C° 0.1 mm 5 mps 740 mmHg 59%
20:00 +17°C° 0 mm 5 mps 740 mmHg 62%
21:00 +16°C° 0 mm 5 mps 741 mmHg 64%
22:00 +15°C° 0 mm 5 mps 741 mmHg 67%
23:00 +15°C° 0 mm 4 mps 741 mmHg 70%
Show more